Date String (YYYY-MM-DD hh:mm:ss) UTC,Instrument flags,Ambient pressure (hPa),Sample flow (lpm),Bypass flow (lpm),Sample temperature (°C),Ambient temperature (°C),ASC tube jacket temperature (°C),LED temperature (°C),Box temperature (°C),Sample RH (%),Span deviation,Mass concentration (μg/m³),Mass concentration (μg/m³),Mass concentration (μg/m³)
DateTimeUTC,F1_M11,P_M11,Q1_M11,Q2_M11,T1_M11,T2_M11,T3_M11,T4_M11,T5_M11,U1_M11,ZSPAN_M11,X2_M11,X0_M11,X1_M11
2023-01-31 13:00:00,,0825.0,5.00,0.00,22.6,22.2,00.0,31.3,24.3,04.7,-000.9,0006.14,0009.43,0005.73
2023-01-31 13:01:00,,0825.0,5.02,0.00,22.4,21.4,00.0,31.3,24.0,04.8,-000.4,0006.10,0009.29,0005.68
2023-01-31 13:02:00,,0825.2,5.01,0.00,22.3,20.7,00.0,31.3,23.8,04.8,-000.4,0006.04,0009.30,0005.62
2023-01-31 13:03:00,,0825.2,4.98,0.00,22.2,20.2,00.0,31.3,23.6,04.9,-000.7,0005.99,0009.30,0005.58
2023-01-31 13:04:00,,0825.2,5.00,0.00,22.2,20.7,00.0,31.2,23.7,04.8,-000.7,0005.98,0009.33,0005.55
2023-01-31 13:05:00,,0825.3,5.01,0.00,22.3,21.8,00.0,31.2,24.1,04.7,-000.9,0005.99,0009.28,0005.56
2023-01-31 13:06:00,,0825.5,4.99,0.00,22.4,22.7,00.0,31.2,24.3,04.6,-000.4,0006.01,0009.28,0005.59
2023-01-31 13:07:00,,0825.5,5.00,0.00,22.5,22.9,00.0,31.2,24.4,04.5,-000.3,0006.06,0009.33,0005.63
2023-01-31 13:08:00,,0825.4,5.00,0.00,22.5,22.2,00.0,31.3,24.3,04.5,-000.3,0006.11,0009.42,0005.70
2023-01-31 13:09:00,,0825.4,5.00,0.00,22.5,21.6,00.0,31.3,24.1,04.6,0000.0,0006.18,0009.55,0005.77
2023-01-31 13:10:00,,0825.3,5.01,0.00,22.4,21.2,00.0,31.3,24.0,04.6,0000.2,0006.26,0009.75,0005.82
2023-01-31 13:11:00,,0825.4,5.00,0.00,22.3,20.8,00.0,31.3,23.8,04.6,0000.4,0006.35,0009.94,0005.88
2023-01-31 13:12:00,,0825.5,4.99,0.00,22.2,20.5,00.0,31.2,23.7,04.7,0000.3,0006.37,0009.97,0005.91
2023-01-31 13:13:00,,0825.3,5.00,0.00,22.2,20.9,00.0,31.2,23.8,04.7,0000.8,0006.44,0010.20,0005.97
2023-01-31 13:14:00,,0825.3,5.02,0.00,22.3,21.9,00.0,31.2,24.1,04.7,0001.2,0006.49,0010.27,0006.01
2023-01-31 13:15:00,,0825.2,4.97,0.00,22.4,22.7,00.0,31.2,24.4,04.7,0001.4,0006.51,0010.24,0006.04
2023-01-31 13:16:00,,0825.2,5.01,0.00,22.5,22.9,00.0,31.2,24.5,04.7,0001.7,0006.46,0010.13,0006.02
2023-01-31 13:17:00,,0825.1,4.98,0.00,22.5,22.1,00.0,31.2,24.2,04.7,0001.5,0006.44,0010.77,0006.00
2023-01-31 13:18:00,,0825.0,4.99,0.00,22.4,21.4,00.0,31.3,24.0,04.7,0001.2,0006.42,0011.22,0005.98
2023-01-31 13:19:00,,0825.0,4.98,0.00,22.4,20.9,00.0,31.3,23.9,04.7,0001.3,0006.39,0011.19,0005.94
2023-01-31 13:20:00,,0825.1,5.01,0.00,22.3,20.5,00.0,31.2,23.7,04.7,0000.8,0006.34,0011.02,0005.90
2023-01-31 13:21:00,,0825.3,5.00,0.00,22.2,20.3,00.0,31.2,23.7,04.7,0000.6,0006.31,0010.89,0005.89
2023-01-31 13:22:00,,0825.4,5.00,0.00,22.2,21.2,00.0,31.2,23.9,04.6,0000.1,0006.30,0010.80,0005.90
2023-01-31 13:23:00,,0825.4,5.00,0.00,22.4,22.2,00.0,31.1,24.2,04.6,-000.1,0006.33,0011.10,0005.93
2023-01-31 13:24:00,,0825.3,4.98,0.00,22.5,22.9,00.0,31.2,24.4,04.6,-000.5,0006.35,0011.42,0005.95
2023-01-31 13:25:00,,0825.1,5.00,0.00,22.5,22.6,00.0,31.2,24.4,04.4,-001.1,0006.39,0011.75,0006.01
2023-01-31 13:26:00,,0825.2,4.98,0.00,22.5,21.8,00.0,31.2,24.2,04.4,-001.1,0006.48,0011.89,0006.09
2023-01-31 13:27:00,,0825.4,5.01,0.00,22.4,21.2,00.0,31.2,24.0,04.4,-001.1,0006.57,0012.01,0006.17
2023-01-31 13:28:00,,0825.3,5.00,0.00,22.3,20.9,00.0,31.2,23.9,04.4,-001.3,0006.65,0011.42,0006.25
2023-01-31 13:29:00,,0825.2,5.01,0.00,22.3,20.6,00.0,31.2,23.8,04.4,-001.0,0006.72,0011.04,0006.34
2023-01-31 13:30:00,,0825.1,5.01,0.00,22.2,20.8,00.0,31.2,23.8,04.4,-001.1,0006.78,0011.06,0006.43
2023-01-31 13:31:00,,0825.1,5.00,0.00,22.3,21.8,00.0,31.2,24.1,04.4,-001.0,0006.92,0011.28,0006.54
2023-01-31 13:32:00,,0825.2,5.00,0.00,22.4,22.6,00.0,31.1,24.3,04.4,-000.7,0007.05,0011.52,0006.66
2023-01-31 13:33:00,,0824.9,4.99,0.00,22.5,22.9,00.0,31.2,24.5,04.4,-000.3,0007.19,0011.78,0006.77
2023-01-31 13:34:00,,0825.0,4.99,0.00,22.5,22.4,00.0,31.2,24.4,04.4,-000.5,0007.33,0011.74,0006.89
2023-01-31 13:35:00,,0825.1,5.01,0.00,22.5,21.8,00.0,31.3,24.2,04.4,-000.0,0007.45,0011.42,0007.02
2023-01-31 13:36:00,,0825.0,5.01,0.00,22.4,21.3,00.0,31.3,24.1,04.4,0000.3,0007.52,0011.11,0007.09
2023-01-31 13:37:00,,0825.1,5.03,0.00,22.4,20.9,00.0,31.3,23.9,04.5,0000.0,0007.55,0011.16,0007.10
2023-01-31 13:38:00,,0825.1,5.01,0.00,22.3,20.6,00.0,31.2,23.8,04.5,-000.1,0007.58,0011.32,0007.10
2023-01-31 13:39:00,,0825.2,4.99,0.00,22.3,20.8,00.0,31.2,23.8,04.5,-000.0,0007.58,0011.27,0007.11
2023-01-31 13:40:00,,0825.3,5.00,0.00,22.3,21.8,00.0,31.2,24.1,04.6,0000.0,0007.60,0011.31,0007.12
2023-01-31 13:41:00,,0825.3,5.01,0.00,22.5,22.6,00.0,31.2,24.3,04.5,0000.2,0007.66,0011.42,0007.16
2023-01-31 13:42:00,,0825.3,5.00,0.00,22.6,23.1,00.0,31.2,24.5,04.5,0000.3,0007.72,0011.57,0007.20
2023-01-31 13:43:00,,0825.2,5.00,0.00,22.6,22.5,00.0,31.3,24.4,04.5,0000.2,0007.77,0011.62,0007.24
2023-01-31 13:44:00,,0825.0,5.01,0.00,22.5,21.9,00.0,31.3,24.2,04.5,-000.0,0007.79,0011.61,0007.25
2023-01-31 13:45:00,,0824.9,5.00,0.00,22.5,21.3,00.0,31.3,24.1,04.4,0000.3,0007.78,0011.49,0007.25
2023-01-31 13:46:00,,0825.0,5.01,0.00,22.4,20.7,00.0,31.3,23.9,04.4,0000.2,0007.78,0011.54,0007.25
2023-01-31 13:47:00,,0825.1,5.00,0.00,22.3,20.3,00.0,31.3,23.8,04.5,0000.2,0007.82,0011.62,0007.28
2023-01-31 13:48:00,,0825.1,5.00,0.00,22.2,20.5,00.0,31.2,23.8,04.5,0000.7,0007.84,0012.06,0007.30
2023-01-31 13:49:00,,0825.0,5.00,0.00,22.3,21.6,00.0,31.2,24.1,04.4,0000.9,0007.86,0011.96,0007.35
2023-01-31 13:50:00,,0825.1,5.00,0.00,22.4,22.5,00.0,31.2,24.3,04.4,0000.9,0007.94,0012.13,0007.43
2023-01-31 13:51:00,,0825.2,5.00,0.00,22.5,22.9,00.0,31.2,24.5,04.4,0000.6,0008.01,0012.23,0007.49
2023-01-31 13:52:00,,0825.2,4.99,0.00,22.6,22.4,00.0,31.3,24.4,04.4,0000.5,0008.03,0012.28,0007.51
2023-01-31 13:53:00,,0825.2,5.01,0.00,22.5,21.8,00.0,31.3,24.3,04.4,-000.1,0007.98,0012.14,0007.50
2023-01-31 13:54:00,,0825.1,5.00,0.00,22.5,21.4,00.0,31.3,24.1,04.5,-000.3,0007.91,0011.93,0007.47
2023-01-31 13:55:00,,0825.0,4.99,0.00,22.4,21.0,00.0,31.3,23.9,04.5,-000.1,0007.80,0011.71,0007.40
2023-01-31 13:56:00,,0824.9,5.00,0.00,22.3,20.7,00.0,31.3,23.9,04.6,0000.0,0007.72,0011.61,0007.31
2023-01-31 13:57:00,,0824.9,5.01,0.00,22.3,20.5,00.0,31.2,23.8,04.6,-000.3,0007.69,0011.57,0007.27
2023-01-31 13:58:00,,0824.9,5.01,0.00,22.2,20.6,00.0,31.2,23.8,04.6,-000.7,0007.66,0011.57,0007.24
2023-01-31 13:59:00,,0825.1,5.01,0.00,22.3,21.5,00.0,31.2,24.0,04.6,-000.7,0007.65,0011.22,0007.23
